Regional Weather Roundup
Issued by NWS

Home | Current Version | Previous Version | Text Only | Print | Product List | Glossary Off
Versions: 1 2 3 4 5 6 7 8 9 10 11 12 13 14 15 16 17 18 19 20 21 22 23 24 25 26 27 28 29 30 31 32 33 34 35 36 37 38 39 40 41 42 43 44 45 46 47 48 49 50

000
ASUS43 KMPX 141601
RWRMN
WEATHER ROUNDUP FOR MINNESOTA
NATIONAL WEATHER SERVICE TWIN CITIES/CHANHASSEN MN
1100 AM CDT SUN SEP 14 2014


NOTE: "FAIR" INDICATES FEW OR NO CLOUDS BELOW 12,000 FEET WITH NO
SIGNIFICANT WEATHER AND/OR OBSTRUCTIONS TO VISIBILITY. N/A MEANS
CURRENT SKY AND/OR WEATHER CONDITIONS ARE NOT AVAILABLE.

MNZ060>063-068>070-141700-
   Twin Cities Metro

CITY           SKY/WX    TMP DP  RH WIND       PRES   REMARKS
TWIN CITIES    MOSUNNY   58  43  57 W7        30.12F
ST PAUL        SUNNY     57  45  64 SW6       30.13F
CRYSTAL        SUNNY     60  42  51 W8        30.11F
BLAINE         SUNNY     61  45  55 SW10      30.11
LAKEVILLE      SUNNY     57  46  67 SW6       30.13F
EDEN PRAIRIE   SUNNY     58  45  62 SW6       30.12F
SOUTH ST PAUL  SUNNY     58  44  59 W6        30.13S
LAKE ELMO      FAIR      59  46  63 W9        30.13S
$$
MNZ001>005-007-008-013>017-022>024-027-028-141700-
   Northwest Minnesota

CITY           SKY/WX    TMP DP  RH WIND       PRES   REMARKS
BEMIDJI        CLOUDY    48  43  81 W16       30.05R
HALLOCK        PTSUNNY   52  46  82 NW12      30.06R
ROSEAU         CLOUDY    52  45  76 W8        30.03R
WARROAD        CLOUDY    48  45  87 NW15      30.03R
THIEF RVR FALL CLOUDY    48  45  87 NW13      30.07R
CROOKSTON      CLOUDY    50  46  87 NW12      30.09R
FOSSTON        CLOUDY    46  43  87 W12G17    30.08R
DETROIT LAKES  CLOUDY    50  43  76 NW8       30.11R
MOORHEAD       MOSUNNY   54  46  76 NW13G18   30.11S
PARK RAPIDS    PTSUNNY   50  42  74 W13       30.08R
MAHNOMEN       CLOUDY    47  43  86 W12G18    30.09R
$$
MNZ006-009>011-018-025>026-141700-
   North Central Minnesota

CITY           SKY/WX    TMP DP  RH WIND       PRES   REMARKS
BAUDETTE       CLOUDY    50  44  80 NW10G16   30.00R
FLAG ISLAND    CLOUDY    48  45  87 W12       29.98R
INTL FALLS     CLOUDY    50  45  81 W8        29.96R
WASKISH        CLOUDY    48  46  93 W13G18    30.02R
BIG FORK       CLOUDY    48  43  81 W5        30.02R
LONGVILLE      PTSUNNY   50  43  76 W10G16    30.06R
GRAND RAPIDS   CLOUDY    52  39  62 W14G21    30.04R
CRANE LAKE     CLOUDY    46  45  93 SW6         N/A
ORR            CLOUDY    48  41  76 W9        29.96S
COOK           CLOUDY    48  43  81 W13G18    29.99R
WALKER         CLOUDY    49  42  76 W13       30.06R
$$
MNZ012-019>021-037-141700-
   Northeast Minnesota

CITY           SKY/WX    TMP DP  RH WIND       PRES   REMARKS
DULUTH         MOSUNNY   56  41  57 W20G31    30.01S
ELY            PTSUNNY   52  39  62 W8G23     29.96S
HIBBING        CLOUDY    51  40  65 W12G20    30.01S
EVELETH        PTSUNNY   52  41  66 W14G22    30.00S
DULUTH HARBOR  SUNNY     59  45  58 W17       30.02S
TWO HARBORS    SUNNY     54  41  62 W16G24    29.98R
SILVER BAY     SUNNY     55  45  67 SW7G20    29.96S
GRAND MARAIS     N/A     53  47  79 SW16      29.96S
G MARAIS ARPRT PTSUNNY   48  41  76 SW7       29.96S
$$
MNZ029>031-032-039>041-046>048-054>057-064-141700-
   West Central Minnesota

CITY           SKY/WX    TMP DP  RH WIND       PRES   REMARKS
FERGUS FALLS   CLOUDY    48  39  71 NW9       30.14R
WHEATON        SUNNY     52  41  66 W7        30.16S
MORRIS         SUNNY     54  43  66 NW16      30.13S
ALEXANDRIA     SUNNY     52  42  69 NW13      30.13R
ELBOW LAKE     FAIR      51  43  73 NW8       30.13S
WADENA         CLOUDY    48  43  81 W8        30.10R
GLENWOOD       SUNNY     54  43  66 W12       30.13R
APPLETON       MOSUNNY   55  41  58 NW10      30.15R
BENSON         SUNNY     55  43  62 NW8G16    30.14S
ORTONVILLE     MOSUNNY   52  39  62 NW8       30.16R
MADISON        PTSUNNY   57  43  58 NW7       30.16S
WILLMAR        FAIR      55  41  58 W7        30.16R
$$
MNZ033>034-036-042>043-049>051-058-059-141700-
   Central Minnesota

CITY           SKY/WX    TMP DP  RH WIND       PRES   REMARKS
ST CLOUD       SUNNY     58  40  51 W13G20    30.11S
SAUK CENTRE    FAIR      53  42  65 W10G16    30.12S
PAYNESVILLE    SUNNY     53  40  62 SW10      30.13S
AITKIN         MOSUNNY   55  45  67 SW10      30.06S
PINE RIVER     PTSUNNY   50  43  76 W8        30.10F
BRAINERD       MOSUNNY   51  41  68 W16       30.09S
STAPLES        PTSUNNY   52  41  66 W9        30.10S
LONG PRAIRIE   FAIR      52  39  62 W14       30.12R
LITTLE FALLS   MOSUNNY   54  39  58 W10       30.10S
LITCHFIELD       N/A     57  43  58 W10       30.14S
BUFFALO        SUNNY     57  42  56 W8        30.13F
MAPLE LAKE     SUNNY     57  45  63 W8        30.13S
$$
MNZ037-044-045-052-053-141700-
   East Central Minnesota

CITY           SKY/WX    TMP DP  RH WIND       PRES   REMARKS
PRINCETON      SUNNY     59  43  55 CALM      30.11R
MORA           SUNNY     55  41  58 W12       30.10S
CAMBRIDGE      SUNNY     59  43  55 W10G16    30.08S
RUSH CITY      SUNNY     58  43  59 W8        30.09F
MOOSE LAKE     MOSUNNY   55  41  58 W12G18    30.03S
HINCKLEY       FAIR      57  43  58 SW13      30.08S
CLOQUET        MOSUNNY   55  41  58 W18G24    30.03S
MCGREGOR       MOSUNNY   52  41  66 W10G16    30.06F
$$
MNZ071>073-080-081-089-090-097-098-141700-
   Southwest Minnesota

CITY           SKY/WX    TMP DP  RH WIND       PRES   REMARKS
MONTEVIDEO     MOSUNNY   55  45  67 N7        30.17R
GRANITE FALLS  MOSUNNY   55  40  58 W7        30.18S
CANBY          PTSUNNY   56  40  56 W9        30.18S
MARSHALL       MOSUNNY   57  36  44 NW8       30.17S
REDWOOD FALLS  MOSUNNY   58  40  51 W10       30.16S
OLIVIA         SUNNY     55  43  62 W9        30.15S
PIPESTONE      SUNNY     55  41  58 CALM      30.18S
WINDOM         SUNNY     59  43  55 W3        30.17S
WORTHINGTON    SUNNY     57  37  47 CALM      30.19S
JACKSON        SUNNY     57  41  54 NW3       30.18S
TRACY          MOSUNNY   59  40  50 CALM      30.17F
SLAYTON        SUNNY     57  38  49 CALM      30.19S
$$
MNZ065>067-074>077-082>085-091>093-141700-
   South Central Minnesota

CITY           SKY/WX    TMP DP  RH WIND       PRES   REMARKS
MANKATO        SUNNY     55  43  62 SW3       30.15F
NEW ULM        SUNNY     57  45  62 NW7       30.16S
ST JAMES       SUNNY     61  43  51 W5        30.18S
FAIRMONT       SUNNY     57  43  58 NW6       30.18S
GLENCOE        SUNNY     59  41  51 W8        30.14R
FARIBAULT      SUNNY     61  45  55 S6        30.15F
OWATONNA       SUNNY     57  46  67 SW7       30.16S
WASECA         SUNNY     55  41  58 SW7       30.17F
ALBERT LEA     SUNNY     57  46  67 SW8       30.16F
$$
MNZ078>079-086>088-094>096-141700-
   Southeast Minnesota

CITY           SKY/WX    TMP DP  RH WIND       PRES   REMARKS
ROCHESTER      SUNNY     60  45  57 SW17G24   30.16F
RED WING       SUNNY     61  45  55 W8        30.13S
STANTON        SUNNY     58  46  64 SW7       30.13F
DODGE CENTER   SUNNY     57  48  72 W14       30.15S
WINONA         SUNNY     61  45  55 SW10      30.15F
AUSTIN         SUNNY     59  46  63 SW14      30.16F
PRESTON        SUNNY     59  50  73 SW9G16    30.17F
$$
ABBREVIATIONS USED IN REMARKS
   TC - TEMPERATURES IN CELSIUS
  WCI - WIND CHILL INDEX
   HX - HEAT INDEX
  VSB - VISIBILITY
$$



USA.gov is the U.S. government's official web portal to all federal, state and local government web resources and services.